Time,TemperatureF,DewpointF,PressureIn,WindDirection,WindDirectionDegrees,WindSpeedMPH,WindSpeedGustMPH,Humidity,HourlyPrecipIn,Conditions,Clouds,dailyrainin,SoftwareType,DateUTC
2013-03-10 00:01:00,45.7,28.1,29.12,SW,236,0.0,0.0,50,0.00,,SKC,0.00,VWS V14.00,2013-03-10 05:01:00,
2013-03-10 00:06:00,45.5,28.0,29.12,SW,235,0.0,0.0,50,0.00,,SKC,0.00,VWS V14.00,2013-03-10 05:06:00,
2013-03-10 00:11:00,45.5,28.0,29.12,SW,235,0.0,0.0,50,0.00,,SKC,0.00,VWS V14.00,2013-03-10 05:11:00,
2013-03-10 00:16:00,45.3,27.8,29.12,SW,236,0.0,0.0,50,0.00,,SKC,0.00,VWS V14.00,2013-03-10 05:16:00,
2013-03-10 00:19:00,45.3,27.8,29.12,SW,236,0.0,0.0,50,0.00,,SKC,0.00,VWS V14.00,2013-03-10 05:19:00,
2013-03-10 00:26:00,45.3,28.3,29.12,SW,236,0.0,0.0,51,0.00,,SKC,0.00,VWS V14.00,2013-03-10 05:26:00,
2013-03-10 00:31:00,45.1,28.1,29.12,SW,235,0.0,0.0,51,0.00,,SKC,0.00,VWS V14.00,2013-03-10 05:31:00,
2013-03-10 00:36:00,45.1,28.1,29.12,SW,235,0.0,0.0,51,0.00,,SKC,0.00,VWS V14.00,2013-03-10 05:36:00,
2013-03-10 00:41:00,45.3,28.3,29.12,SW,235,0.0,0.0,51,0.00,,SKC,0.00,VWS V14.00,2013-03-10 05:41:00,
2013-03-10 00:46:00,45.3,28.3,29.12,SW,236,0.0,0.0,51,0.00,,SKC,0.00,VWS V14.00,2013-03-10 05:46:00,
2013-03-10 00:51:00,45.3,28.3,29.09,SW,235,0.0,0.0,51,0.00,,SKC,0.00,VWS V14.00,2013-03-10 05:51:00,
2013-03-10 00:56:00,45.3,28.3,29.09,SW,235,0.0,0.0,51,0.00,,SKC,0.00,VWS V14.00,2013-03-10 05:56:00,
2013-03-10 01:01:00,45.3,28.8,29.09,SW,236,0.0,0.0,52,0.00,,SKC,0.00,VWS V14.00,2013-03-10 06:01:00,
2013-03-10 01:06:00,45.1,28.6,29.09,SW,236,0.0,0.0,52,0.00,,SKC,0.00,VWS V14.00,2013-03-10 06:06:00,
2013-03-10 01:11:00,45.1,28.6,29.09,SW,236,0.0,0.0,52,0.00,,SKC,0.00,VWS V14.00,2013-03-10 06:11:00,
2013-03-10 01:16:00,45.1,28.6,29.09,SW,235,0.0,0.0,52,0.00,,SKC,0.00,VWS V14.00,2013-03-10 06:16:00,
2013-03-10 01:21:00,45.0,28.4,29.09,SW,236,0.0,0.0,52,0.00,,SKC,0.00,VWS V14.00,2013-03-10 06:21:00,
2013-03-10 01:26:00,45.0,28.4,29.09,SW,236,0.0,0.0,52,0.00,,SKC,0.00,VWS V14.00,2013-03-10 06:26:00,
2013-03-10 01:31:00,45.0,28.4,29.09,SW,236,0.0,0.0,52,0.00,,SKC,0.00,VWS V14.00,2013-03-10 06:31:00,
2013-03-10 01:36:00,44.8,28.2,29.09,SW,236,0.0,0.0,52,0.00,,SKC,0.00,VWS V14.00,2013-03-10 06:36:00,
2013-03-10 01:41:00,44.8,28.2,29.09,SW,235,0.0,0.0,52,0.00,,SKC,0.00,VWS V14.00,2013-03-10 06:41:00,
2013-03-10 01:46:00,44.8,28.7,29.09,SW,236,0.0,0.0,53,0.00,,SKC,0.00,VWS V14.00,2013-03-10 06:46:00,
2013-03-10 01:51:00,44.8,28.7,29.09,SW,236,0.0,0.0,53,0.00,,SKC,0.00,VWS V14.00,2013-03-10 06:51:00,
2013-03-10 01:56:00,44.6,28.5,29.09,SW,235,0.0,0.0,53,0.00,,SKC,0.00,VWS V14.00,2013-03-10 06:56:00,
2013-03-10 03:01:00,44.6,28.5,29.09,SW,236,0.0,0.0,53,0.00,,SKC,0.00,VWS V14.00,2013-03-10 07:01:00,
2013-03-10 03:06:00,44.6,28.5,29.09,SW,236,0.0,0.0,53,0.00,,SKC,0.00,VWS V14.00,2013-03-10 07:06:00,
2013-03-10 03:11:00,44.6,29.0,29.09,SW,236,0.0,0.0,54,0.00,,SKC,0.00,VWS V14.00,2013-03-10 07:11:00,
2013-03-10 03:16:00,44.6,29.0,29.09,SW,236,0.0,0.0,54,0.00,,SKC,0.00,VWS V14.00,2013-03-10 07:16:00,
2013-03-10 03:21:00,44.6,29.0,29.06,SW,235,0.0,0.0,54,0.00,,SKC,0.00,VWS V14.00,2013-03-10 07:21:00,
2013-03-10 03:26:00,44.4,28.8,29.06,SW,236,0.0,0.0,54,0.00,,SKC,0.00,VWS V14.00,2013-03-10 07:26:00,
2013-03-10 03:31:00,44.2,28.7,29.06,SW,236,0.0,0.0,54,0.00,,SKC,0.00,VWS V14.00,2013-03-10 07:31:00,
2013-03-10 03:36:00,44.2,28.7,29.06,SW,236,0.0,0.0,54,0.00,,SKC,0.00,VWS V14.00,2013-03-10 07:36:00,
2013-03-10 03:41:00,43.9,28.3,29.06,SW,235,0.0,0.0,54,0.00,,SKC,0.00,VWS V14.00,2013-03-10 07:41:00,
2013-03-10 03:46:00,43.7,28.6,29.06,SW,236,0.0,0.0,55,0.00,,SKC,0.00,VWS V14.00,2013-03-10 07:46:00,
2013-03-10 03:51:00,43.5,28.4,29.06,SW,236,0.0,0.0,55,0.00,,SKC,0.00,VWS V14.00,2013-03-10 07:51:00,
2013-03-10 03:56:00,43.5,28.4,29.06,SW,236,0.0,0.0,55,0.00,,SKC,0.00,VWS V14.00,2013-03-10 07:56:00,
2013-03-10 04:01:00,43.3,28.3,29.06,SW,236,0.0,0.0,55,0.00,,SKC,0.00,VWS V14.00,2013-03-10 08:01:00,
2013-03-10 04:06:00,43.2,28.1,29.06,SW,236,0.0,0.0,55,0.00,,SKC,0.00,VWS V14.00,2013-03-10 08:06:00,
2013-03-10 04:11:00,43.2,28.1,29.06,SW,235,0.0,0.0,55,0.00,,SKC,0.00,VWS V14.00,2013-03-10 08:11:00,
2013-03-10 04:16:00,43.0,27.9,29.06,SW,236,0.0,0.0,55,0.00,,SKC,0.00,VWS V14.00,2013-03-10 08:16:00,
2013-03-10 04:21:00,42.8,27.8,29.06,SW,236,0.0,0.0,55,0.00,,SKC,0.00,VWS V14.00,2013-03-10 08:21:00,
2013-03-10 04:26:00,42.6,28.0,29.06,SW,235,0.0,0.0,56,0.00,,SKC,0.00,VWS V14.00,2013-03-10 08:26:00,
2013-03-10 04:31:00,42.3,27.7,29.06,SW,236,0.0,0.0,56,0.00,,SKC,0.00,VWS V14.00,2013-03-10 08:31:00,
2013-03-10 04:36:00,42.1,27.5,29.06,SW,236,0.0,0.0,56,0.00,,SKC,0.00,VWS V14.00,2013-03-10 08:36:00,
2013-03-10 04:41:00,41.7,27.2,29.06,SW,236,0.0,0.0,56,0.00,,SKC,0.00,VWS V14.00,2013-03-10 08:41:00,
2013-03-10 04:46:00,41.7,27.6,29.06,SW,236,0.0,0.0,57,0.00,,SKC,0.00,VWS V14.00,2013-03-10 08:46:00,
2013-03-10 04:51:00,41.7,27.6,29.06,SW,235,0.0,0.0,57,0.00,,SKC,0.00,VWS V14.00,2013-03-10 08:51:00,
2013-03-10 04:56:00,41.7,27.6,29.06,SW,235,0.0,0.0,57,0.00,,SKC,0.00,VWS V14.00,2013-03-10 08:56:00,
2013-03-10 05:01:00,41.7,27.6,29.06,SW,236,0.0,0.0,57,0.00,,SKC,0.00,VWS V14.00,2013-03-10 09:01:00,
2013-03-10 05:06:00,41.7,27.6,29.06,SW,234,0.0,0.0,57,0.00,,SKC,0.00,VWS V14.00,2013-03-10 09:06:00,
2013-03-10 05:11:00,41.5,27.5,29.06,SW,234,0.0,0.0,57,0.00,,SKC,0.00,VWS V14.00,2013-03-10 09:11:00,
2013-03-10 05:16:00,41.2,27.1,29.06,SW,234,0.0,0.0,57,0.00,,SKC,0.00,VWS V14.00,2013-03-10 09:16:00,
2013-03-10 05:21:00,41.2,27.1,29.06,SW,234,0.0,0.0,57,0.00,,SKC,0.00,VWS V14.00,2013-03-10 09:21:00,
2013-03-10 05:26:00,41.2,27.5,29.06,SW,234,0.0,0.0,58,0.00,,SKC,0.00,VWS V14.00,2013-03-10 09:26:00,
2013-03-10 05:31:00,41.2,27.5,29.06,SW,234,0.0,0.0,58,0.00,,SKC,0.00,VWS V14.00,2013-03-10 09:31:00,
2013-03-10 05:36:00,41.2,27.5,29.06,SW,234,0.0,0.0,58,0.00,,SKC,0.00,VWS V14.00,2013-03-10 09:36:00,
2013-03-10 05:41:00,41.2,27.5,29.06,SW,234,0.0,0.0,58,0.00,,SKC,0.00,VWS V14.00,2013-03-10 09:41:00,
2013-03-10 05:46:00,41.2,27.5,29.06,SW,234,0.0,0.0,58,0.00,,SKC,0.00,VWS V14.00,2013-03-10 09:46:00,
2013-03-10 05:51:00,41.2,27.5,29.06,SW,234,0.0,0.0,58,0.00,,SKC,0.00,VWS V14.00,2013-03-10 09:51:00,
2013-03-10 05:56:00,41.2,27.5,29.06,SW,234,0.0,0.0,58,0.00,,SKC,0.00,VWS V14.00,2013-03-10 09:56:00,
2013-03-10 06:01:00,41.2,27.5,29.06,SW,234,0.0,0.0,58,0.00,,SKC,0.00,VWS V14.00,2013-03-10 10:01:00,
2013-03-10 06:06:00,41.0,27.8,29.06,SW,234,0.0,0.0,59,0.00,,SKC,0.00,VWS V14.00,2013-03-10 10:06:00,
2013-03-10 06:11:00,41.2,28.0,29.06,SW,234,0.0,0.0,59,0.00,,SKC,0.00,VWS V14.00,2013-03-10 10:11:00,
2013-03-10 06:16:00,41.0,27.8,29.06,SW,234,0.0,0.0,59,0.00,,SKC,0.00,VWS V14.00,2013-03-10 10:16:00,
2013-03-10 06:21:00,41.0,27.8,29.06,SW,234,0.0,0.0,59,0.00,,SKC,0.00,VWS V14.00,2013-03-10 10:21:00,
2013-03-10 06:26:00,40.8,28.0,29.06,SW,234,0.0,0.0,60,0.00,,SKC,0.00,VWS V14.00,2013-03-10 10:26:00,
2013-03-10 06:31:00,40.6,27.9,29.06,SW,234,0.0,0.0,60,0.00,,SKC,0.00,VWS V14.00,2013-03-10 10:31:00,
2013-03-10 06:36:00,40.6,27.9,29.06,SW,234,0.0,0.0,60,0.00,,SKC,0.00,VWS V14.00,2013-03-10 10:36:00,
2013-03-10 06:41:00,40.6,27.9,29.06,SW,234,0.0,0.0,60,0.00,,SKC,0.00,VWS V14.00,2013-03-10 10:41:00,
2013-03-10 06:46:00,40.5,27.7,29.06,SW,234,0.0,0.0,60,0.00,,SKC,0.00,VWS V14.00,2013-03-10 10:46:00,
2013-03-10 06:51:00,40.5,28.1,29.06,SW,234,0.0,0.0,61,0.00,,SKC,0.00,VWS V14.00,2013-03-10 10:51:00,
2013-03-10 06:56:00,40.5,28.1,29.06,SW,234,0.0,0.0,61,0.00,,SKC,0.00,VWS V14.00,2013-03-10 10:56:00,
2013-03-10 07:01:00,40.5,28.1,29.06,SW,234,0.0,0.0,61,0.00,,SKC,0.00,VWS V14.00,2013-03-10 11:01:00,
2013-03-10 07:06:00,40.6,28.3,29.06,SW,234,0.0,0.0,61,0.00,,SKC,0.00,VWS V14.00,2013-03-10 11:06:00,
2013-03-10 07:11:00,40.6,28.3,29.06,SW,234,0.0,0.0,61,0.00,,SKC,0.00,VWS V14.00,2013-03-10 11:11:00,
2013-03-10 07:16:00,40.6,28.3,29.06,SW,234,0.0,0.0,61,0.00,,SKC,0.00,VWS V14.00,2013-03-10 11:16:00,
2013-03-10 07:22:00,40.8,28.4,29.06,SW,234,0.0,0.0,61,0.00,,SKC,0.00,VWS V14.00,2013-03-10 11:22:00,
2013-03-10 07:27:00,41.0,28.6,29.06,SW,234,0.0,0.0,61,0.00,,SKC,0.00,VWS V14.00,2013-03-10 11:27:00,
2013-03-10 07:32:00,41.0,28.6,29.09,SW,234,0.0,0.0,61,0.00,,SKC,0.00,VWS V14.00,2013-03-10 11:32:00,
2013-03-10 07:37:00,40.8,28.8,29.09,SW,234,0.0,0.0,62,0.00,,SKC,0.00,VWS V14.00,2013-03-10 11:37:00,
2013-03-10 07:42:00,40.8,28.8,29.09,SW,234,0.0,0.0,62,0.00,,SKC,0.00,VWS V14.00,2013-03-10 11:42:00,
2013-03-10 07:47:00,41.0,29.0,29.09,SW,234,0.0,0.0,62,0.00,,SKC,0.00,VWS V14.00,2013-03-10 11:47:00,
2013-03-10 07:52:00,41.0,29.0,29.09,SW,234,0.0,0.0,62,0.00,,SKC,0.00,VWS V14.00,2013-03-10 11:52:00,
2013-03-10 07:57:00,41.0,29.0,29.09,SW,234,0.0,0.0,62,0.00,,SKC,0.00,VWS V14.00,2013-03-10 11:57:00,
2013-03-10 08:02:00,41.2,29.2,29.09,SW,234,0.0,0.0,62,0.00,,SKC,0.00,VWS V14.00,2013-03-10 12:02:00,
2013-03-10 08:07:00,41.2,29.2,29.09,SW,234,0.0,0.0,62,0.00,,SKC,0.00,VWS V14.00,2013-03-10 12:07:00,
2013-03-10 08:12:00,41.4,29.7,29.09,SW,234,0.0,0.0,63,0.00,,SKC,0.00,VWS V14.00,2013-03-10 12:12:00,
2013-03-10 08:17:00,41.5,29.9,29.09,SW,234,0.0,0.0,63,0.00,,SKC,0.00,VWS V14.00,2013-03-10 12:17:00,
2013-03-10 08:22:00,41.7,30.5,29.09,SW,232,0.0,0.0,64,0.00,,SKC,0.00,VWS V14.00,2013-03-10 12:22:00,
2013-03-10 08:27:00,41.9,31.0,29.09,SW,231,0.0,0.0,65,0.00,,SKC,0.00,VWS V14.00,2013-03-10 12:27:00,
2013-03-10 08:32:00,42.1,31.2,29.09,SW,231,0.0,0.0,65,0.00,,SKC,0.00,VWS V14.00,2013-03-10 12:32:00,
2013-03-10 08:37:00,42.4,31.5,29.09,SW,231,0.0,0.0,65,0.00,,SKC,0.00,VWS V14.00,2013-03-10 12:37:00,
2013-03-10 08:42:00,42.8,31.9,29.09,SW,231,0.0,0.0,65,0.00,,SKC,0.00,VWS V14.00,2013-03-10 12:42:00,
2013-03-10 08:47:00,43.0,32.0,29.09,SW,231,0.0,0.0,65,0.00,,SKC,0.00,VWS V14.00,2013-03-10 12:47:00,
2013-03-10 08:52:00,43.3,32.8,29.09,SW,231,0.0,0.0,66,0.00,,SKC,0.00,VWS V14.00,2013-03-10 12:52:00,
2013-03-10 08:57:00,43.9,33.3,29.09,SW,235,0.0,0.0,66,0.00,,SKC,0.00,VWS V14.00,2013-03-10 12:57:00,
2013-03-10 09:02:00,44.6,34.0,29.09,NNW,345,0.0,0.0,66,0.00,,SKC,0.00,VWS V14.00,2013-03-10 13:02:00,
2013-03-10 09:07:00,45.3,34.6,29.09,NNE,29,0.0,0.0,66,0.00,,SKC,0.00,VWS V14.00,2013-03-10 13:07:00,
2013-03-10 09:12:00,45.9,35.2,29.09,NNE,29,0.0,0.0,66,0.00,,SKC,0.00,VWS V14.00,2013-03-10 13:12:00,
2013-03-10 09:17:00,46.2,35.1,29.09,NE,38,0.0,0.0,65,0.00,,SKC,0.00,VWS V14.00,2013-03-10 13:17:00,
2013-03-10 09:22:00,46.6,35.5,29.09,NE,38,0.0,0.0,65,0.00,,SKC,0.00,VWS V14.00,2013-03-10 13:22:00,
2013-03-10 09:27:00,47.3,35.8,29.09,NE,38,0.0,0.0,64,0.00,,SKC,0.00,VWS V14.00,2013-03-10 13:27:00,
2013-03-10 09:32:00,48.0,36.4,29.09,NE,38,0.0,0.0,64,0.00,,SKC,0.00,VWS V14.00,2013-03-10 13:32:00,
2013-03-10 09:37:00,48.6,36.5,29.09,NNE,32,0.0,3.6,63,0.00,,SKC,0.00,VWS V14.00,2013-03-10 13:37:00,
2013-03-10 09:42:00,49.1,36.2,29.09,NE,42,3.2,4.9,61,0.00,,SKC,0.00,VWS V14.00,2013-03-10 13:42:00,
2013-03-10 09:47:00,49.5,36.2,29.09,NNE,21,0.0,4.9,60,0.00,,SKC,0.00,VWS V14.00,2013-03-10 13:47:00,
2013-03-10 09:52:00,49.5,36.2,29.09,NE,43,0.0,0.0,60,0.00,,SKC,0.00,VWS V14.00,2013-03-10 13:52:00,
2013-03-10 09:57:00,49.8,36.5,29.09,NNE,22,0.0,0.0,60,0.00,,SKC,0.00,VWS V14.00,2013-03-10 13:57:00,
2013-03-10 10:02:00,50.4,36.2,29.09,NNE,29,0.0,3.1,58,0.00,,SKC,0.00,VWS V14.00,2013-03-10 14:02:00,
2013-03-10 10:07:00,50.9,36.7,29.09,NE,55,0.0,3.1,58,0.00,,SKC,0.00,VWS V14.00,2013-03-10 14:07:00,
2013-03-10 10:12:00,51.4,36.7,29.09,NE,37,0.0,0.0,57,0.00,,SKC,0.00,VWS V14.00,2013-03-10 14:12:00,
2013-03-10 10:17:00,51.4,36.7,29.09,ENE,76,0.0,0.0,57,0.00,,SKC,0.00,VWS V14.00,2013-03-10 14:17:00,
2013-03-10 10:22:00,51.8,37.1,29.09,NE,38,0.0,0.0,57,0.00,,SKC,0.00,VWS V14.00,2013-03-10 14:22:00,
2013-03-10 10:27:00,52.5,37.7,29.09,NE,38,0.0,0.0,57,0.00,,SKC,0.00,VWS V14.00,2013-03-10 14:27:00,
2013-03-10 10:32:00,52.9,37.6,29.09,NE,38,0.0,0.0,56,0.00,,SKC,0.00,VWS V14.00,2013-03-10 14:32:00,
2013-03-10 10:37:00,53.1,37.8,29.09,NNW,329,0.0,0.0,56,0.00,,SKC,0.00,VWS V14.00,2013-03-10 14:37:00,
2013-03-10 10:42:00,54.0,36.3,29.09,NNE,26,0.0,0.0,51,0.00,,SKC,0.00,VWS V14.00,2013-03-10 14:42:00,
2013-03-10 10:47:00,54.7,37.9,29.09,NW,321,0.0,0.0,53,0.00,,SKC,0.00,VWS V14.00,2013-03-10 14:47:00,
2013-03-10 10:52:00,55.0,37.8,29.09,NNE,28,0.0,0.0,52,0.00,,SKC,0.00,VWS V14.00,2013-03-10 14:52:00,
2013-03-10 10:57:00,55.6,37.2,29.09,North,353,0.0,0.0,50,0.00,,SKC,0.00,VWS V14.00,2013-03-10 14:57:00,
2013-03-10 11:02:00,56.1,37.8,29.09,NNE,26,0.0,2.7,50,0.00,,SKC,0.00,VWS V14.00,2013-03-10 15:02:00,
2013-03-10 11:07:00,56.7,37.7,29.09,NNE,30,3.2,4.0,49,0.00,,SKC,0.00,VWS V14.00,2013-03-10 15:07:00,
2013-03-10 11:12:00,57.2,37.2,29.09,NW,320,0.0,0.0,47,0.00,,SKC,0.00,VWS V14.00,2013-03-10 15:12:00,
2013-03-10 11:17:00,57.6,37.5,29.09,NW,325,0.0,3.1,47,0.00,,SKC,0.00,VWS V14.00,2013-03-10 15:17:00,
2013-03-10 11:22:00,57.7,37.1,29.06,NNE,18,0.0,0.0,46,0.00,,SKC,0.00,VWS V14.00,2013-03-10 15:22:00,
2013-03-10 11:27:00,57.7,37.1,29.06,NNE,25,0.0,3.1,46,0.00,,SKC,0.00,VWS V14.00,2013-03-10 15:27:00,
2013-03-10 11:32:00,57.9,36.7,29.06,NNW,331,0.0,0.0,45,0.00,,SKC,0.00,VWS V14.00,2013-03-10 15:32:00,
2013-03-10 11:37:00,58.3,36.5,29.06,NNE,31,0.0,3.1,44,0.00,,SKC,0.00,VWS V14.00,2013-03-10 15:37:00,
2013-03-10 11:42:00,58.5,36.7,29.06,NNE,30,0.0,3.1,44,0.00,,SKC,0.00,VWS V14.00,2013-03-10 15:42:00,
2013-03-10 11:47:00,58.8,36.4,29.06,NNE,24,0.0,3.1,43,0.00,,SKC,0.00,VWS V14.00,2013-03-10 15:47:00,
2013-03-10 11:52:00,59.0,37.1,29.06,ENE,57,0.0,3.1,44,0.00,,SKC,0.00,VWS V14.00,2013-03-10 15:52:00,
2013-03-10 11:57:00,59.2,36.7,29.06,NE,41,0.0,3.1,43,0.00,,SKC,0.00,VWS V14.00,2013-03-10 15:57:00,
2013-03-10 12:02:00,59.5,37.6,29.06,NE,41,0.0,3.1,44,0.00,,SKC,0.00,VWS V14.00,2013-03-10 16:02:00,
2013-03-10 12:07:00,59.7,37.2,29.06,NE,35,0.0,3.1,43,0.00,,SKC,0.00,VWS V14.00,2013-03-10 16:07:00,
2013-03-10 12:12:00,60.1,37.5,29.06,North,4,0.0,3.1,43,0.00,,SKC,0.00,VWS V14.00,2013-03-10 16:12:00,
2013-03-10 12:17:00,60.3,37.7,29.06,NNW,328,0.0,3.1,43,0.00,,SKC,0.00,VWS V14.00,2013-03-10 16:17:00,
2013-03-10 12:22:00,60.4,37.3,29.06,NNW,328,0.0,3.1,42,0.00,,SKC,0.00,VWS V14.00,2013-03-10 16:22:00,
2013-03-10 12:27:00,61.0,37.1,29.06,NNW,327,0.0,3.1,41,0.00,,SKC,0.00,VWS V14.00,2013-03-10 16:27:00,
2013-03-10 12:32:00,61.7,37.2,29.06,NNE,29,0.0,4.0,40,0.00,,SKC,0.00,VWS V14.00,2013-03-10 16:32:00,
2013-03-10 12:37:00,62.2,37.0,29.06,NW,305,0.0,4.9,39,0.00,,SKC,0.00,VWS V14.00,2013-03-10 16:37:00,
2013-03-10 12:42:00,62.8,36.8,29.06,NE,35,0.0,4.9,38,0.00,,SKC,0.00,VWS V14.00,2013-03-10 16:42:00,
2013-03-10 12:47:00,63.1,37.1,29.03,NW,313,0.0,4.9,38,0.00,,SKC,0.00,VWS V14.00,2013-03-10 16:47:00,
2013-03-10 12:52:00,63.5,36.8,29.03,NE,36,0.0,3.6,37,0.00,,SKC,0.00,VWS V14.00,2013-03-10 16:52:00,
2013-03-10 12:57:00,63.9,36.4,29.03,NE,34,3.2,6.3,36,0.00,,SKC,0.00,VWS V14.00,2013-03-10 16:57:00,
2013-03-10 13:03:00,64.6,37.0,29.03,East,89,2.7,3.6,36,0.00,,SKC,0.00,VWS V14.00,2013-03-10 17:03:00,
2013-03-10 13:08:00,65.1,36.8,29.03,NNE,24,3.2,3.6,35,0.00,,SKC,0.00,VWS V14.00,2013-03-10 17:08:00,
2013-03-10 13:13:00,65.8,37.5,29.03,North,2,0.0,4.0,35,0.00,,SKC,0.00,VWS V14.00,2013-03-10 17:13:00,
2013-03-10 13:18:00,66.4,37.9,29.03,NNE,14,0.0,4.0,35,0.00,,SKC,0.00,VWS V14.00,2013-03-10 17:18:00,
2013-03-10 13:23:00,66.9,37.7,29.03,NE,38,0.0,0.0,34,0.00,,SKC,0.00,VWS V14.00,2013-03-10 17:23:00,
2013-03-10 13:28:00,67.6,38.3,29.03,NNE,24,0.0,3.6,34,0.00,,SKC,0.00,VWS V14.00,2013-03-10 17:28:00,
2013-03-10 13:33:00,68.0,38.6,29.03,SW,229,0.0,0.0,34,0.00,,SKC,0.00,VWS V14.00,2013-03-10 17:33:00,
2013-03-10 13:38:00,68.2,38.8,29.03,NW,307,0.0,0.0,34,0.00,,SKC,0.00,VWS V14.00,2013-03-10 17:38:00,
2013-03-10 13:43:00,68.4,38.2,29.03,NNE,26,3.2,3.2,33,0.00,,SKC,0.00,VWS V14.00,2013-03-10 17:43:00,
2013-03-10 13:48:00,68.7,38.5,29.03,ENE,65,0.0,4.0,33,0.00,,SKC,0.00,VWS V14.00,2013-03-10 17:48:00,
2013-03-10 13:53:00,68.9,38.6,29.03,NNE,26,0.0,0.0,33,0.00,,SKC,0.00,VWS V14.00,2013-03-10 17:53:00,
2013-03-10 13:58:00,69.8,38.6,29.03,South,176,0.0,0.0,32,0.00,,SKC,0.00,VWS V14.00,2013-03-10 17:58:00,
2013-03-10 14:03:00,70.7,40.2,29.00,SW,214,0.0,0.0,33,0.00,,SKC,0.00,VWS V14.00,2013-03-10 18:03:00,
2013-03-10 14:08:00,71.4,40.0,29.00,NE,50,0.0,0.0,32,0.00,,SKC,0.00,VWS V14.00,2013-03-10 18:08:00,
2013-03-10 14:13:00,72.0,39.7,29.00,NW,322,0.0,0.0,31,0.00,,SKC,0.00,VWS V14.00,2013-03-10 18:13:00,
2013-03-10 14:18:00,71.8,39.5,29.00,NNE,25,0.0,0.0,31,0.00,,SKC,0.00,VWS V14.00,2013-03-10 18:18:00,
2013-03-10 14:23:00,71.6,39.4,29.00,NNE,31,4.3,4.3,31,0.00,,SKC,0.00,VWS V14.00,2013-03-10 18:23:00,
2013-03-10 14:28:00,71.4,40.0,29.00,SSW,193,7.0,7.0,32,0.00,,SKC,0.00,VWS V14.00,2013-03-10 18:28:00,
2013-03-10 14:33:00,71.2,39.9,29.00,South,186,5.4,5.8,32,0.00,,SKC,0.00,VWS V14.00,2013-03-10 18:33:00,
2013-03-10 14:38:00,71.6,38.6,29.00,SSE,153,2.7,7.2,30,0.00,,SKC,0.00,VWS V14.00,2013-03-10 18:38:00,
2013-03-10 14:43:00,72.1,39.0,29.00,SW,219,3.2,3.6,30,0.00,,SKC,0.00,VWS V14.00,2013-03-10 18:43:00,
2013-03-10 14:48:00,72.5,39.3,29.00,South,181,6.4,6.4,30,0.00,,SKC,0.00,VWS V14.00,2013-03-10 18:48:00,
2013-03-10 14:53:00,72.7,37.7,29.00,WSW,245,3.8,8.3,28,0.00,,SKC,0.00,VWS V14.00,2013-03-10 18:53:00,
2013-03-10 14:58:00,73.0,38.0,29.00,SSW,200,4.3,8.3,28,0.00,,SKC,0.00,VWS V14.00,2013-03-10 18:58:00,
2013-03-10 15:03:00,73.2,38.2,28.97,SW,218,4.3,6.3,28,0.00,,SKC,0.00,VWS V14.00,2013-03-10 19:03:00,
2013-03-10 15:08:00,73.6,37.6,28.97,SW,231,4.8,6.3,27,0.00,,SKC,0.00,VWS V14.00,2013-03-10 19:08:00,
2013-03-10 15:13:00,74.3,38.2,28.97,West,279,0.0,3.6,27,0.00,,SKC,0.00,VWS V14.00,2013-03-10 19:13:00,
2013-03-10 15:18:00,74.7,38.5,28.97,WSW,237,3.2,6.3,27,0.00,,SKC,0.00,VWS V14.00,2013-03-10 19:18:00,
2013-03-10 15:23:00,74.7,37.5,28.97,NW,324,4.3,4.9,26,0.00,,SKC,0.00,VWS V14.00,2013-03-10 19:23:00,
2013-03-10 15:28:00,74.8,36.7,28.97,NW,315,0.0,4.9,25,0.00,,SKC,0.00,VWS V14.00,2013-03-10 19:28:00,
2013-03-10 15:33:00,74.8,37.7,28.97,SW,231,0.0,4.0,26,0.00,,SKC,0.00,VWS V14.00,2013-03-10 19:33:00,
2013-03-10 15:38:00,74.7,37.5,28.97,SW,221,0.0,4.0,26,0.00,,SKC,0.00,VWS V14.00,2013-03-10 19:38:00,
2013-03-10 15:43:00,74.3,36.2,28.97,NW,305,0.0,5.4,25,0.00,,SKC,0.00,VWS V14.00,2013-03-10 19:43:00,
2013-03-10 15:48:00,74.1,36.1,28.97,SW,222,0.0,5.4,25,0.00,,SKC,0.00,VWS V14.00,2013-03-10 19:48:00,
2013-03-10 15:53:00,74.3,36.2,28.97,West,260,0.0,4.0,25,0.00,,SKC,0.00,VWS V14.00,2013-03-10 19:53:00,
2013-03-10 15:58:00,74.5,36.4,28.97,SW,234,2.7,4.0,25,0.00,,SKC,0.00,VWS V14.00,2013-03-10 19:58:00,
2013-03-10 16:03:00,74.3,36.2,28.97,SSW,198,2.7,4.0,25,0.00,,SKC,0.00,VWS V14.00,2013-03-10 20:03:00,
2013-03-10 16:08:00,73.9,35.9,28.97,WSW,244,0.0,4.0,25,0.00,,SKC,0.00,VWS V14.00,2013-03-10 20:08:00,
2013-03-10 16:13:00,73.6,35.6,28.97,SE,126,7.5,7.5,25,0.00,,SKC,0.00,VWS V14.00,2013-03-10 20:13:00,
2013-03-10 16:18:00,73.4,35.5,28.97,SW,227,0.0,6.7,25,0.00,,SKC,0.00,VWS V14.00,2013-03-10 20:18:00,
2013-03-10 16:23:00,73.2,35.3,28.97,SSE,168,7.5,8.3,25,0.00,,SKC,0.00,VWS V14.00,2013-03-10 20:23:00,
2013-03-10 16:28:00,73.2,35.3,28.97,SW,219,4.8,8.3,25,0.00,,SKC,0.00,VWS V14.00,2013-03-10 20:28:00,
2013-03-10 16:33:00,73.4,34.5,28.97,SW,233,4.3,4.3,24,0.00,,SKC,0.00,VWS V14.00,2013-03-10 20:33:00,
2013-03-10 16:38:00,73.6,34.6,28.97,SW,216,5.9,6.3,24,0.00,,SKC,0.00,VWS V14.00,2013-03-10 20:38:00,
2013-03-10 16:43:00,73.4,34.5,28.97,SW,233,3.2,6.3,24,0.00,,SKC,0.00,VWS V14.00,2013-03-10 20:43:00,
2013-03-10 16:48:00,73.4,34.5,28.97,SSE,150,4.8,6.3,24,0.00,,SKC,0.00,VWS V14.00,2013-03-10 20:48:00,
2013-03-10 16:53:00,73.2,34.3,28.97,WSW,249,0.0,4.9,24,0.00,,SKC,0.00,VWS V14.00,2013-03-10 20:53:00,
2013-03-10 16:58:00,73.0,34.1,28.97,WSW,241,0.0,6.3,24,0.00,,SKC,0.00,VWS V14.00,2013-03-10 20:58:00,
2013-03-10 17:03:00,72.9,35.0,28.97,West,275,0.0,0.0,25,0.00,,SKC,0.00,VWS V14.00,2013-03-10 21:03:00,
2013-03-10 17:08:00,72.5,34.7,28.97,SSW,196,4.8,6.3,25,0.00,,SKC,0.00,VWS V14.00,2013-03-10 21:08:00,
2013-03-10 17:19:00,72.1,33.4,28.97,SSW,192,0.0,5.4,24,0.00,,SKC,0.00,VWS V14.00,2013-03-10 21:19:00,
2013-03-10 17:24:00,72.0,33.2,28.97,SW,224,5.9,5.9,24,0.00,,SKC,0.00,VWS V14.00,2013-03-10 21:24:00,
2013-03-10 17:29:00,71.8,33.1,28.97,WSW,239,4.3,5.4,24,0.00,,SKC,0.00,VWS V14.00,2013-03-10 21:29:00,
2013-03-10 17:34:00,71.6,32.9,28.97,SW,235,4.3,6.3,24,0.00,,SKC,0.00,VWS V14.00,2013-03-10 21:34:00,
2013-03-10 17:39:00,71.1,33.5,28.97,SW,227,4.3,6.3,25,0.00,,SKC,0.00,VWS V14.00,2013-03-10 21:39:00,
2013-03-10 17:44:00,70.7,33.2,28.97,SSW,208,4.3,7.6,25,0.00,,SKC,0.00,VWS V14.00,2013-03-10 21:44:00,
2013-03-10 17:49:00,70.3,31.9,28.97,South,185,3.8,7.6,24,0.00,,SKC,0.00,VWS V14.00,2013-03-10 21:49:00,
2013-03-10 17:54:00,70.0,31.6,28.97,WSW,249,6.4,6.4,24,0.00,,SKC,0.00,VWS V14.00,2013-03-10 21:54:00,
2013-03-10 17:59:00,70.0,31.6,28.97,South,190,7.0,8.1,24,0.00,,SKC,0.00,VWS V14.00,2013-03-10 21:59:00,
2013-03-10 18:04:00,69.8,31.4,28.94,SSW,211,6.4,6.4,24,0.00,,SKC,0.00,VWS V14.00,2013-03-10 22:04:00,
2013-03-10 18:09:00,69.4,31.1,28.94,South,179,5.9,8.3,24,0.00,,SKC,0.00,VWS V14.00,2013-03-10 22:09:00,
2013-03-10 18:14:00,69.3,31.0,28.94,SSW,209,2.7,4.5,24,0.00,,SKC,0.00,VWS V14.00,2013-03-10 22:14:00,
2013-03-10 18:19:00,68.9,30.6,28.94,SW,236,4.8,7.6,24,0.00,,SKC,0.00,VWS V14.00,2013-03-10 22:19:00,
2013-03-10 18:24:00,68.7,30.5,28.94,WSW,255,3.2,8.1,24,0.00,,SKC,0.00,VWS V14.00,2013-03-10 22:24:00,
2013-03-10 18:29:00,68.5,30.4,28.94,SSW,204,0.0,8.1,24,0.00,,SKC,0.00,VWS V14.00,2013-03-10 22:29:00,
2013-03-10 18:34:00,68.2,30.0,28.94,WSW,248,3.2,4.0,24,0.00,,SKC,0.00,VWS V14.00,2013-03-10 22:34:00,
2013-03-10 18:39:00,67.8,30.7,28.94,SW,224,0.0,5.4,25,0.00,,SKC,0.00,VWS V14.00,2013-03-10 22:39:00,
2013-03-10 18:44:00,67.5,30.4,28.94,SW,234,0.0,4.0,25,0.00,,SKC,0.00,VWS V14.00,2013-03-10 22:44:00,
2013-03-10 18:49:00,67.3,30.3,28.97,SSE,167,3.8,5.8,25,0.00,,SKC,0.00,VWS V14.00,2013-03-10 22:49:00,
2013-03-10 18:54:00,67.1,29.1,28.97,South,188,4.8,8.3,24,0.00,,SKC,0.00,VWS V14.00,2013-03-10 22:54:00,
2013-03-10 18:59:00,66.7,28.8,28.97,SW,229,6.4,8.3,24,0.00,,SKC,0.00,VWS V14.00,2013-03-10 22:59:00,
2013-03-10 19:04:00,66.6,28.7,28.94,South,188,3.8,5.4,24,0.00,,SKC,0.00,VWS V14.00,2013-03-10 23:04:00,
2013-03-10 19:09:00,66.4,28.5,28.94,South,169,0.0,5.4,24,0.00,,SKC,0.00,VWS V14.00,2013-03-10 23:09:00,
2013-03-10 19:14:00,66.2,28.4,28.94,South,186,0.0,4.0,24,0.00,,SKC,0.00,VWS V14.00,2013-03-10 23:14:00,
2013-03-10 19:19:00,66.0,29.2,28.94,South,171,7.0,7.0,25,0.00,,SKC,0.00,VWS V14.00,2013-03-10 23:19:00,
2013-03-10 19:24:00,65.8,29.1,28.94,SW,229,3.2,6.3,25,0.00,,SKC,0.00,VWS V14.00,2013-03-10 23:24:00,
2013-03-10 19:29:00,65.5,28.8,28.94,WSW,244,0.0,6.3,25,0.00,,SKC,0.00,VWS V14.00,2013-03-10 23:29:00,
2013-03-10 19:34:00,65.3,28.6,28.94,SW,214,0.0,4.9,25,0.00,,SKC,0.00,VWS V14.00,2013-03-10 23:34:00,
2013-03-10 19:39:00,65.1,28.5,28.94,SSW,204,5.9,5.9,25,0.00,,SKC,0.00,VWS V14.00,2013-03-10 23:39:00,
2013-03-10 19:44:00,64.8,28.1,28.94,SSE,153,0.0,4.0,25,0.00,,SKC,0.00,VWS V14.00,2013-03-10 23:44:00,
2013-03-10 19:49:00,64.6,28.0,28.94,NNE,32,0.0,4.0,25,0.00,,SKC,0.00,VWS V14.00,2013-03-10 23:49:00,
2013-03-10 19:54:00,64.4,27.8,28.94,SSW,210,0.0,0.0,25,0.00,,SKC,0.00,VWS V14.00,2013-03-10 23:54:00,
2013-03-10 19:59:00,64.2,27.7,28.94,SE,126,0.0,4.0,25,0.00,,SKC,0.00,VWS V14.00,2013-03-10 23:59:00,
2013-03-10 20:04:00,64.0,27.5,28.94,SW,224,0.0,3.6,25,0.00,,SKC,0.00,VWS V14.00,2013-03-11 00:04:00,
2013-03-10 20:09:00,63.7,27.2,28.94,South,169,0.0,3.6,25,0.00,,SKC,0.00,VWS V14.00,2013-03-11 00:09:00,
2013-03-10 20:14:00,63.3,26.9,28.94,SSW,204,0.0,0.0,25,0.00,,SKC,0.00,VWS V14.00,2013-03-11 00:14:00,
2013-03-10 20:19:00,63.0,26.6,28.94,SSW,198,4.3,6.3,25,0.00,,SKC,0.00,VWS V14.00,2013-03-11 00:19:00,
2013-03-10 20:24:00,62.8,26.5,28.94,SSW,204,3.2,5.4,25,0.00,,SKC,0.00,VWS V14.00,2013-03-11 00:24:00,
2013-03-10 20:29:00,62.6,26.3,28.94,SSW,203,0.0,6.3,25,0.00,,SKC,0.00,VWS V14.00,2013-03-11 00:29:00,
2013-03-10 20:34:00,62.2,27.0,28.94,SSW,203,0.0,0.0,26,0.00,,SKC,0.00,VWS V14.00,2013-03-11 00:34:00,
2013-03-10 20:39:00,61.9,26.6,28.94,South,181,0.0,0.0,26,0.00,,SKC,0.00,VWS V14.00,2013-03-11 00:39:00,
2013-03-10 20:44:00,61.7,26.5,28.94,South,181,0.0,0.0,26,0.00,,SKC,0.00,VWS V14.00,2013-03-11 00:44:00,
2013-03-10 20:49:00,61.3,26.2,28.94,NNW,346,0.0,0.0,26,0.00,,SKC,0.00,VWS V14.00,2013-03-11 00:49:00,
2013-03-10 20:55:00,61.0,25.9,28.94,SW,226,3.8,3.8,26,0.00,,SKC,0.00,VWS V14.00,2013-03-11 00:55:00,
2013-03-10 21:00:00,61.0,25.9,28.94,SE,144,0.0,4.9,26,0.00,,SKC,0.00,VWS V14.00,2013-03-11 01:00:00,
2013-03-10 21:05:00,61.0,25.9,28.94,SW,225,7.5,7.5,26,0.00,,SKC,0.00,VWS V14.00,2013-03-11 01:05:00,
2013-03-10 21:10:00,61.2,26.0,28.94,SSE,149,5.9,6.3,26,0.00,,SKC,0.00,VWS V14.00,2013-03-11 01:10:00,
2013-03-10 21:15:00,61.3,26.2,28.94,SSW,203,3.2,4.0,26,0.00,,SKC,0.00,VWS V14.00,2013-03-11 01:15:00,
2013-03-10 21:20:00,61.2,26.0,28.91,SSE,166,3.2,5.8,26,0.00,,SKC,0.00,VWS V14.00,2013-03-11 01:20:00,
2013-03-10 21:25:00,61.2,26.0,28.91,SW,230,0.0,5.4,26,0.00,,SKC,0.00,VWS V14.00,2013-03-11 01:25:00,
2013-03-10 21:30:00,61.0,25.9,28.91,SW,235,2.7,5.4,26,0.00,,SKC,0.00,VWS V14.00,2013-03-11 01:30:00,
2013-03-10 21:35:00,61.0,25.9,28.94,SSE,159,5.9,5.9,26,0.00,,SKC,0.00,VWS V14.00,2013-03-11 01:35:00,
2013-03-10 21:40:00,61.0,25.9,28.94,SSW,208,5.9,6.3,26,0.00,,SKC,0.00,VWS V14.00,2013-03-11 01:40:00,
2013-03-10 21:45:00,60.8,25.7,28.94,ENE,63,3.8,3.8,26,0.00,,SKC,0.00,VWS V14.00,2013-03-11 01:45:00,
2013-03-10 21:50:00,60.6,25.6,28.94,SSW,206,3.8,6.3,26,0.00,,SKC,0.00,VWS V14.00,2013-03-11 01:50:00,
2013-03-10 21:55:00,60.4,25.4,28.94,WSW,250,0.0,4.0,26,0.00,,SKC,0.00,VWS V14.00,2013-03-11 01:55:00,
2013-03-10 22:00:00,60.3,25.3,28.94,SE,138,3.2,5.8,26,0.00,,SKC,0.00,VWS V14.00,2013-03-11 02:00:00,
2013-03-10 22:05:00,60.1,26.0,28.94,WSW,253,7.0,7.0,27,0.00,,SKC,0.00,VWS V14.00,2013-03-11 02:05:00,
2013-03-10 22:10:00,60.1,26.0,28.94,SSW,198,0.0,6.7,27,0.00,,SKC,0.00,VWS V14.00,2013-03-11 02:10:00,
2013-03-10 22:15:00,59.9,25.9,28.94,ESE,119,0.0,8.7,27,0.00,,SKC,0.00,VWS V14.00,2013-03-11 02:15:00,
2013-03-10 22:20:00,59.9,25.9,28.94,ESE,103,0.0,8.7,27,0.00,,SKC,0.00,VWS V14.00,2013-03-11 02:20:00,
2013-03-10 22:25:00,59.9,25.9,28.94,WSW,241,2.7,5.4,27,0.00,,SKC,0.00,VWS V14.00,2013-03-11 02:25:00,
2013-03-10 22:30:00,59.7,25.7,28.94,ENE,58,0.0,6.3,27,0.00,,SKC,0.00,VWS V14.00,2013-03-11 02:30:00,
2013-03-10 22:35:00,59.7,25.7,28.94,SSE,165,12.6,12.6,27,0.00,,SKC,0.00,VWS V14.00,2013-03-11 02:35:00,
2013-03-10 22:40:00,59.9,25.9,28.94,SSE,156,5.9,10.5,27,0.00,,SKC,0.00,VWS V14.00,2013-03-11 02:40:00,
2013-03-10 22:45:00,59.9,26.7,28.94,SW,236,4.3,10.1,28,0.00,,SKC,0.00,VWS V14.00,2013-03-11 02:45:00,
2013-03-10 22:50:00,60.1,26.9,28.94,South,184,7.5,11.0,28,0.00,,SKC,0.00,VWS V14.00,2013-03-11 02:50:00,
2013-03-10 22:55:00,60.4,27.2,28.94,SSW,211,5.9,12.3,28,0.00,,SKC,0.00,VWS V14.00,2013-03-11 02:55:00,
2013-03-10 23:00:00,60.4,27.2,28.94,South,178,12.6,12.6,28,0.00,,SKC,0.00,VWS V14.00,2013-03-11 03:00:00,
2013-03-10 23:05:00,60.4,27.2,28.94,SW,228,10.5,10.5,28,0.00,,SKC,0.00,VWS V14.00,2013-03-11 03:05:00,
2013-03-10 23:10:00,60.6,27.4,28.94,South,186,7.5,10.5,28,0.00,,SKC,0.00,VWS V14.00,2013-03-11 03:10:00,
2013-03-10 23:15:00,60.6,28.2,28.94,SE,130,9.7,9.7,29,0.00,,SKC,0.00,VWS V14.00,2013-03-11 03:15:00,
2013-03-10 23:20:00,60.6,28.2,28.91,South,172,6.4,11.4,29,0.00,,SKC,0.00,VWS V14.00,2013-03-11 03:20:00,
2013-03-10 23:25:00,60.8,28.4,28.91,NNW,341,9.1,11.0,29,0.00,,SKC,0.00,VWS V14.00,2013-03-11 03:25:00,
2013-03-10 23:30:00,60.8,28.4,28.91,South,177,4.8,11.0,29,0.00,,SKC,0.00,VWS V14.00,2013-03-11 03:30:00,
2013-03-10 23:35:00,61.0,28.5,28.91,WSW,240,10.5,12.3,29,0.00,,SKC,0.00,VWS V14.00,2013-03-11 03:35:00,
2013-03-10 23:40:00,61.0,28.5,28.91,SSE,164,6.4,12.3,29,0.00,,SKC,0.00,VWS V14.00,2013-03-11 03:40:00,
2013-03-10 23:45:00,61.2,28.7,28.91,SSW,198,8.1,10.1,29,0.00,,SKC,0.00,VWS V14.00,2013-03-11 03:45:00,
2013-03-10 23:50:00,61.2,29.5,28.91,SSW,196,5.9,5.9,30,0.00,,SKC,0.00,VWS V14.00,2013-03-11 03:50:00,
2013-03-10 23:55:00,61.2,29.5,28.91,SE,145,7.5,10.5,30,0.00,,SKC,0.00,VWS V14.00,2013-03-11 03:55:00,